MEDFLT1 KFCI-KFCI

Flight info

Callsign MEDFLT1
Flight time N/A
Altitude 1200
Route DCT
Aircraft H145/L-SDFGRY/C

Departure

Time 2026-05-04 11:43
Airport Richmond Executive-Chesterfield County Airport (KFCI)

Arrival

Time N/A
Airport Richmond Executive-Chesterfield County Airport (KFCI)
Time Latitude Longitude Altitude Speed Heading
2026-05-04 11:31 37.40478 -77.51956 212 ft 0 kts 49°
2026-05-04 11:42 37.40479 -77.51956 212 ft 0 kts 57°
2026-05-04 11:42 37.40477 -77.51947 219 ft 2 kts 58°
2026-05-04 11:42 37.40472 -77.51914 293 ft 7 kts 58°
2026-05-04 11:42 37.40517 -77.51813 578 ft 22 kts 57°
2026-05-04 11:43 37.40630 -77.51615 887 ft 33 kts 56°
2026-05-04 11:43 37.40794 -77.51362 1258 ft 41 kts 52°
2026-05-04 11:43 37.40989 -77.51156 1450 ft 32 kts 35°
2026-05-04 11:43 37.41237 -77.51022 1373 ft 52 kts
2026-05-04 11:44 37.41723 -77.50987 1341 ft 86 kts 359°
2026-05-04 11:44 37.42388 -77.50930 1334 ft 102 kts
2026-05-04 11:44 37.43105 -77.50845 1331 ft 105 kts
2026-05-04 11:44 37.43827 -77.50740 1325 ft 104 kts
2026-05-04 11:45 37.44546 -77.50617 1323 ft 104 kts
2026-05-04 11:45 37.45264 -77.50479 1322 ft 104 kts
2026-05-04 11:45 37.45980 -77.50330 1322 ft 104 kts
2026-05-04 11:45 37.46715 -77.50164 1319 ft 110 kts 10°
2026-05-04 11:46 37.47454 -77.49992 1322 ft 109 kts 11°
2026-05-04 11:46 37.48202 -77.49812 1313 ft 113 kts 11°
2026-05-04 11:46 37.48982 -77.49617 1322 ft 114 kts 11°
2026-05-04 11:46 37.49758 -77.49422 1323 ft 114 kts 11°
2026-05-04 11:47 37.50535 -77.49226 1322 ft 114 kts 11°
2026-05-04 11:47 37.51310 -77.49026 1322 ft 114 kts 11°
2026-05-04 11:47 37.52084 -77.48826 1322 ft 114 kts 12°
2026-05-04 11:47 37.52858 -77.48624 1321 ft 114 kts 12°
2026-05-04 11:48 37.53633 -77.48421 1321 ft 114 kts 12°
2026-05-04 11:48 37.54404 -77.48218 1289 ft 114 kts 11°
2026-05-04 11:48 37.55177 -77.48017 1257 ft 113 kts 12°
2026-05-04 11:48 37.55951 -77.47812 1241 ft 114 kts 12°
2026-05-04 11:49 37.56724 -77.47608 1233 ft 114 kts 12°
2026-05-04 11:49 37.57498 -77.47402 1231 ft 114 kts 12°
2026-05-04 11:49 37.58272 -77.47196 1229 ft 114 kts 12°
2026-05-04 11:49 37.59035 -77.46992 1230 ft 114 kts 12°
2026-05-04 11:50 37.59808 -77.46786 1229 ft 113 kts 12°
2026-05-04 11:50 37.60574 -77.46582 1228 ft 113 kts 12°
2026-05-04 11:50 37.61345 -77.46375 1228 ft 113 kts 12°
2026-05-04 11:50 37.62118 -77.46169 1227 ft 113 kts 12°
2026-05-04 11:51 37.62890 -77.45963 1227 ft 113 kts 12°
2026-05-04 11:51 37.63663 -77.45756 1227 ft 113 kts 12°
2026-05-04 11:51 37.64435 -77.45549 1227 ft 113 kts 12°
2026-05-04 11:51 37.65189 -77.45351 1239 ft 104 kts 12°
2026-05-04 11:52 37.65880 -77.45172 1239 ft 97 kts 12°
2026-05-04 11:52 37.66486 -77.45017 1229 ft 83 kts 13°
2026-05-04 11:52 37.67014 -77.44881 1227 ft 73 kts 12°
2026-05-04 11:52 37.67516 -77.44747 1226 ft 75 kts 12°
2026-05-04 11:53 37.68039 -77.44598 1349 ft 83 kts 13°
2026-05-04 11:53 37.68632 -77.44437 1234 ft 89 kts
2026-05-04 11:53 37.69245 -77.44321 1081 ft 89 kts
2026-05-04 11:53 37.69861 -77.44269 938 ft 90 kts
2026-05-04 11:55 37.70932 -77.43602 606 ft 17 kts 268°
2026-05-04 11:55 37.70940 -77.43709 488 ft 15 kts 266°
2026-05-04 11:56 37.70935 -77.43820 375 ft 7 kts 265°
2026-05-04 11:56 37.70939 -77.43866 254 ft 2 kts 202°
2026-05-04 11:56 37.70933 -77.43871 212 ft 0 kts 156°
2026-05-04 12:21 37.70934 -77.43871 224 ft 1 kts 158°
2026-05-04 12:21 37.70783 -77.43920 423 ft 57 kts 191°
2026-05-04 12:21 37.70401 -77.44267 744 ft 78 kts 217°
2026-05-04 12:21 37.69909 -77.44421 976 ft 79 kts 183°
2026-05-04 12:22 37.69349 -77.44431 963 ft 88 kts 181°
2026-05-04 12:22 37.68668 -77.44451 952 ft 100 kts 181°
2026-05-04 12:22 37.67983 -77.44478 944 ft 98 kts 183°
2026-05-04 12:22 37.67296 -77.44518 927 ft 103 kts 185°
2026-05-04 12:23 37.66546 -77.44577 941 ft 108 kts 184°
2026-05-04 12:23 37.65777 -77.44644 936 ft 113 kts 185°
2026-05-04 12:23 37.64972 -77.44723 939 ft 117 kts 185°
2026-05-04 12:23 37.64159 -77.44807 938 ft 118 kts 185°
2026-05-04 12:24 37.63341 -77.44894 938 ft 117 kts 185°
2026-05-04 12:24 37.62527 -77.44983 938 ft 118 kts 186°
2026-05-04 12:24 37.61722 -77.45074 937 ft 117 kts 186°
2026-05-04 12:24 37.60908 -77.45168 938 ft 118 kts 186°
2026-05-04 12:25 37.60090 -77.45262 938 ft 118 kts 186°
2026-05-04 12:25 37.59280 -77.45357 937 ft 117 kts 186°
2026-05-04 12:25 37.58466 -77.45455 937 ft 117 kts 186°
2026-05-04 12:25 37.57651 -77.45554 937 ft 118 kts 186°
2026-05-04 12:26 37.56828 -77.45656 936 ft 121 kts 186°
2026-05-04 12:26 37.55984 -77.45762 937 ft 123 kts 185°
2026-05-04 12:26 37.55143 -77.45864 938 ft 123 kts 185°
2026-05-04 12:26 37.54292 -77.45967 938 ft 123 kts 185°
2026-05-04 12:27 37.53439 -77.46070 937 ft 123 kts 185°
2026-05-04 12:27 37.52583 -77.46176 938 ft 123 kts 185°
2026-05-04 12:27 37.51733 -77.46280 937 ft 123 kts 186°
2026-05-04 12:27 37.50885 -77.46383 938 ft 123 kts 185°
2026-05-04 12:28 37.50034 -77.46487 938 ft 122 kts 187°
2026-05-04 12:28 37.49198 -77.46589 937 ft 120 kts 187°
2026-05-04 12:28 37.48382 -77.46690 927 ft 123 kts 187°
2026-05-04 12:28 37.47525 -77.46800 937 ft 123 kts 186°
2026-05-04 12:29 37.46671 -77.46905 937 ft 124 kts 186°
2026-05-04 12:29 37.45816 -77.47011 938 ft 123 kts 186°
2026-05-04 12:29 37.44961 -77.47116 938 ft 123 kts 186°
2026-05-04 12:29 37.44106 -77.47221 938 ft 123 kts 186°
2026-05-04 12:30 37.43248 -77.47326 937 ft 124 kts 186°
2026-05-04 12:30 37.42392 -77.47430 937 ft 123 kts 186°
2026-05-04 12:30 37.41540 -77.47534 937 ft 123 kts 186°
2026-05-04 12:30 37.40690 -77.47639 937 ft 122 kts 187°
2026-05-04 12:31 37.39843 -77.47743 938 ft 122 kts 186°
2026-05-04 12:31 37.38997 -77.47847 937 ft 123 kts 186°
2026-05-04 12:31 37.38152 -77.47950 937 ft 124 kts 186°
2026-05-04 12:31 37.37305 -77.48054 937 ft 123 kts 186°
2026-05-04 12:32 37.36452 -77.48159 938 ft 123 kts 186°
2026-05-04 12:32 37.34750 -77.48368 938 ft 124 kts 186°
2026-05-04 12:32 37.33889 -77.48473 937 ft 124 kts 186°
2026-05-04 12:33 37.33029 -77.48578 937 ft 124 kts 186°
2026-05-04 12:33 37.32170 -77.48683 938 ft 123 kts 186°
2026-05-04 12:33 37.31318 -77.48787 937 ft 123 kts 186°
2026-05-04 12:33 37.30468 -77.48891 937 ft 123 kts 186°
2026-05-04 12:34 37.29628 -77.48995 939 ft 123 kts 186°
2026-05-04 12:34 37.28779 -77.49099 936 ft 123 kts 186°
2026-05-04 12:34 37.27926 -77.49204 939 ft 123 kts 187°
2026-05-04 12:34 37.27076 -77.49307 939 ft 122 kts 187°
2026-05-04 12:35 37.26230 -77.49411 943 ft 122 kts 187°
2026-05-04 12:35 37.25390 -77.49515 945 ft 122 kts 187°
2026-05-04 12:35 37.24545 -77.49618 946 ft 122 kts 187°
2026-05-04 12:35 37.23696 -77.49721 946 ft 122 kts 187°
2026-05-04 12:36 37.22853 -77.49824 946 ft 122 kts 187°
2026-05-04 12:36 37.22014 -77.49926 945 ft 122 kts 187°
2026-05-04 12:36 37.21169 -77.50029 947 ft 122 kts 187°
2026-05-04 12:36 37.20320 -77.50139 769 ft 123 kts 186°
2026-05-04 12:37 37.19496 -77.50225 588 ft 111 kts 186°
2026-05-04 12:37 37.18804 -77.50267 458 ft 83 kts 185°
2026-05-04 12:37 37.18262 -77.50253 340 ft 76 kts 187°
2026-05-04 12:37 37.18027 -77.50544 350 ft 37 kts 323°
2026-05-04 12:38 37.18197 -77.50575 239 ft 29 kts 94°
2026-05-04 12:38 37.18304 -77.50400 216 ft 18 kts 47°
2026-05-04 12:38 37.18347 -77.50351 191 ft 0 kts 47°